Home   Weather   Irvine   Past weeks

Flag for USA Past Weather in Irvine, California, USA — Yesterday and Last 2 Weeks

Now
74 °F

Passing clouds.


Feels Like: 77 °F
Forecast: 60 / 73 °F
Wind: 15 mph from South

Location: John Wayne Airport-Orange County Airport

Current Time: Apr 23, 2017 at 3:14:09 pm

Latest Report: Apr 23, 2017 at 1:53 pm


Visibility: 10 mi

Pressure: 29.85 "Hg

Humidity: 56%

Dew Point: 57 °F

Location of IrvineLocation

Past Weather in Irvine — Graph

°F

Irvine Temperature Yesterday

Maximum temperature yesterday: 84 °F (at 1:53 pm)
Minimum temperature yesterday: 61 °F (at 5:53 am)
Average temperature yesterday: 71 °F

High & Low Weather Summary for the Past Weeks

 TemperatureHumidityPressure
High84 °F (Apr 22, 1:53 pm)97% (Apr 18, 11:07 pm)30.14 "Hg (Apr 18, 11:07 pm)
Low52 °F (Apr 10, 5:53 am)23% (Apr 21, 8:53 pm)29.81 "Hg (Apr 21, 6:53 pm)
Average64 °F66%30.00 "Hg
* Reported Apr 8 1:53 pm — Apr 23 1:53 pm, Irvine, Weather by CustomWeather, © 2017

Note: Actual official high and low records may vary slightly from our data, if they occured in-between our weather recording intervals... More about our weather records

Advertising

Irvine Weather History for the Previous 24 Hours

Scroll right to see more
 ConditionsComfort  
Time TempWeatherWind HumidityBarometerVisibility
1:53 pm
Sun, Apr 23
74 °FPassing clouds.15 mph56%29.85 "Hg10 mi
12:53 pm78 °FPassing clouds.9 mph45%29.85 "Hg10 mi
11:53 am77 °FPassing clouds.8 mph50%29.86 "Hg10 mi
10:53 am70 °FPassing clouds.8 mph68%29.89 "Hg10 mi
9:53 am68 °FPassing clouds.8 mph73%29.88 "Hg10 mi
9:06 am67 °FScattered clouds.10 mph76%29.87 "Hg10 mi
8:41 am66 °FPartly sunny.9 mph78%29.88 "Hg10 mi
7:53 am64 °FPartly sunny.5 mph81%29.87 "Hg10 mi
6:53 am62 °FPartly sunny.No wind83%29.84 "Hg10 mi
5:53 am62 °FPassing clouds.5 mph83%29.83 "Hg10 mi
4:53 am63 °FClear.No wind81%29.83 "Hg10 mi
3:53 am63 °FClear.3 mph81%29.83 "Hg10 mi
2:53 am64 °FClear.No wind78%29.82 "Hg10 mi
1:53 am64 °FClear.5 mph75%29.85 "Hg10 mi
12:53 am64 °FClear.5 mph75%29.86 "Hg10 mi
11:53 pm
Sat, Apr 22
64 °FClear.3 mph78%29.85 "Hg10 mi
10:53 pm65 °FPassing clouds.8 mph81%29.84 "Hg9 mi
9:53 pm65 °FPassing clouds.6 mph76%29.85 "Hg10 mi
8:53 pm68 °FClear.5 mph65%29.84 "Hg10 mi
7:53 pm69 °FPassing clouds.5 mph63%29.83 "Hg10 mi
6:53 pm71 °FPassing clouds.7 mph57%29.83 "Hg10 mi
5:53 pm76 °FScattered clouds.9 mph39%29.83 "Hg10 mi
4:53 pm79 °FScattered clouds.7 mph39%29.83 "Hg10 mi
3:53 pm79 °FScattered clouds.8 mph42%29.83 "Hg10 mi
Weather by CustomWeather, © 2017

See weather overviewHow to use our weather pages